O3B FM11 (40349 NORAD) Tracking and Keplerian Element Data

This shows tracking and keplerian element data for the satellite.

Feedback or suggestion? Click here.




ElementValue
Catalog40349
NameO3B FM11
Epoch Orbit18497
Epoch Day34.64491533
Epoch Year2025
RAAN351.7845
Inclination0.0498
Eccentricity0.0008515
Argument of Perigee233.9497
Mean Anonmoly134.1913
Mean Motion5.00115674
Decay Rate-1.4E-07
L11 40349U 14083B 25034.64491533 -.00000014 00000+0 00000+0 0 9999
L22 40349 0.0498 351.7845 0008515 233.9497 134.1913 5.00115674184972



Live tracking and technical data element details for O3B FM11 (NORAD 40349). O3B FM11 can be tracked NOW for your location showing map with azimuth and elevation plus other details from your city location.







IsCatalogInMostPopularTable: catalog: 40349, numindb: 519
Update: records affected: 1



GetName: 40349 O3B FM11

Hit Count: updated at: Sat, 06 Dec 2025 17:27:37 GMT